Regional Weather Roundup
Issued by NWS

Home | Current Version | Previous Version | Text Only | Print | Product List | Glossary Off
Versions: 1 2 3 4 5 6 7 8 9 10 11 12 13 14 15 16 17 18 19 20 21 22 23 24 25 26 27 28 29 30 31 32 33 34 35 36 37 38 39 40 41 42 43 44 45 46 47 48 49 50

000
ASUS45 KSLC 031910
RWRUT

UTAH REGIONAL WEATHER ROUNDUP
NATIONAL WEATHER SERVICE SALT LAKE CITY UT
100 PM MDT THU SEP 03 2015

UTZ001>011-023>025-032000-

NORTHERN UTAH

CITY           SKY/WX    TMP DP  RH WIND       PRES   REMARKS
BRIGHAM CITY   MOSUNNY   86  30  13 S18G26    29.88F
HILL AFB       MOSUNNY   82  42  23 S25G32    29.92F
LOGAN          MOSUNNY   84  35  17 SW18G32   29.88F
OGDEN          PTSUNNY   84  40  21 S23G31    29.89F
PROVO AIRPORT  PTSUNNY   81  45  28 S12G17    29.94F
SALT LAKE CITY PTSUNNY   85  39  19 SE25G33   29.89F
VERNAL         CLOUDY    79  41  25 SW9       30.02F
WENDOVER       MOSUNNY   84  34  16 S18       29.84F
HEBER CITY     PTSUNNY   81  32  17 SW21      30.00F
WEST JORDAN    SUNNY     82  43  24 SE21G30   29.93F

$$

UTZ012>022-026-027-032000-

SOUTHERN/CENTRAL UTAH

CITY           SKY/WX    TMP DP  RH WIND       PRES   REMARKS
BLANDING       MOSUNNY   79  44  29 SW3G18    30.21F
BRYCE CANYON   MOSUNNY   70  36  28 S15G24    30.22F
CEDAR CITY     SUNNY     77  34  21 SW18G26   30.04F
DELTA          MOSUNNY   82  32  16 S25G36    29.97F
HANKSVILLE     MOSUNNY   88  36  15 S15G24    30.00F
MILFORD        MOSUNNY   86  33  15 SW28G35   29.98F
MOAB/CYNLANDS  SUNNY     87  42  20 SW13G23   29.98F
PRICE          SUNNY     78  41  26 S10G18    30.06F
ST GEORGE      MOCLDY    91  41  17 SW20G29   29.90F
KANAB          SUNNY     81  48  32 S5        30.11F

$$

REGIONAL REPORTS     COLORADO/ARIZONA

CITY           SKY/WX    TMP DP  RH WIND       PRES   REMARKS
CRAIG, CO      CLOUDY    78  47  33 S9        30.10F
GRAND JUNCTION PTSUNNY   75  52  44 SE25G35   30.08F
RIFLE          RAIN      60  56  86 E10       30.18R FOG
MONTROSE       CLOUDY    66  54  65 NW6       30.20F
CORTEZ         MOSUNNY   79  46  31 SW13      30.14F
PAGE, AZ       MOSUNNY   87  37  17 SW10      30.01F
GRAND CANYON   SUNNY     76  35  22 SW15      30.20F
KINGMAN        SUNNY     91  38  15 SW18G25   29.97F
FLAGSTAFF      MOSUNNY   70  44  39 SW15G25   30.25F

$$

REGIONAL REPORTS    NEVADA/IDAHO/WYOMING

CITY           SKY/WX    TMP DP  RH WIND       PRES   REMARKS
LAS VEGAS, NV  MOSUNNY   95  34  11 SW16G23   29.79F HX  90
ELY            SUNNY     75  30  19 S18G28    30.00F
ELKO           SUNNY     77  31  18 W7        29.90F
POCATELLO, ID  MOSUNNY   75  40  28 W16       29.91F
BURLEY         SUNNY     69  44  40 W8G17     29.90F
EVANSTON, WY   MOSUNNY   76  29  17 SW23G32   30.07F
ROCK SPRINGS   PTSUNNY   76  37  24 E3        30.06F
KEMMERER       PTSUNNY  N/A N/A N/A SW15G25   30.08F

$$



USA.gov is the U.S. government's official web portal to all federal, state and local government web resources and services.